Weather in Chundzha

Kazakhstan     43˚32′18″N   79˚27′47″E
temp.,
°C
wind,
m/s
gust,
m/s
humid.,
%
clouds,
%
prec.,
mm/h
press.,
hPa
HPBL,
m
17 january, sun
sun1700:00−4˚w22460 0.0 102221
03:00−4˚wsw12440 0.0 102021
06:00−4˚w22480 0.0 102021
09:00−3˚wsw22440 0.0 102221
12:00wnw11630 0.0 102150
15:00wnw11690 0.0 101934
18:00−4˚w11540 0.0 102021
21:00−4˚wsw12490 0.0 101921
18 january, mon
mon1800:00−6˚w01520 0.0 101721
03:00−6˚sse00500 0.0 101521
06:00−4˚wsw124718 0.0 101421
09:00−4˚sw1244100 0.0 101421
12:00−1˚nw015697 0.0 101447
15:00−1˚n1172100 0.0 101344
18:00−5˚ese0164100 0.0 101521
21:00−6˚nw0161100 0.0 101621
19 january, tue
tue1900:00−5˚wsw1158100 0.0 101621
03:00−5˚wsw1159100 0.0 101621
06:00−5˚wsw1157100 0.0 101621
09:00−5˚w115690 0.0 101821
12:00−1˚nne116582 0.0 101755
15:00sw0176100 0.0 101642
18:00−3˚s116599 0.0 101821
21:00−3˚e116197 0.0 102021
20 january, wed
wed2000:00−3˚e015999 0.0 102121
03:00−4˚nw016297 0.0 102221
06:00−3˚ssw116099 0.0 102321
09:00−4˚w116096 0.0 102521
12:00+1˚w127391 0.0 102550
15:00+2˚sw1174100 0.0 102522
18:00−1˚e2266100 0.0 102621
21:00−5˚ne117472 0.0 102621
21 january, thu
thu2100:00−5˚sw117142 0.0 102521
03:00−6˚wnw017294 0.0 102221
06:00−6˚w227089 0.0 101921
09:00−4˚wsw235996 0.0 101722
12:00wnw346998 0.0 1014113
15:00w2269100 0.0 101040
18:00−2˚wsw3353100 0.0 101022
21:00−2˚w1253100 0.0 101021